TimeEST,TemperatureF,Dew PointF,Humidity,Sea Level PressureIn,VisibilityMPH,Wind Direction,Wind SpeedMPH,Gust SpeedMPH,PrecipitationIn,Events,Conditions,WindDirDegrees,DateUTC
12:53 AM,27.0,25.0,92,30.17,10.0,Calm,Calm,-,N/A,,Clear,0,2013-01-20 05:53:00
1:53 AM,26.1,24.1,92,30.16,10.0,Calm,Calm,-,N/A,,Clear,0,2013-01-20 06:53:00
2:53 AM,26.1,24.1,92,30.16,10.0,Calm,Calm,-,N/A,,Clear,0,2013-01-20 07:53:00
3:26 AM,25.0,23.0,92,30.15,2.0,Calm,Calm,-,N/A,,Scattered Clouds,0,2013-01-20 08:26:00
3:51 AM,26.6,24.8,93,30.15,0.1,Calm,Calm,-,N/A,Fog,Light Freezing Fog,0,2013-01-20 08:51:00
3:53 AM,26.1,24.1,92,30.15,0.1,Calm,Calm,-,N/A,Fog,Light Freezing Fog,0,2013-01-20 08:53:00
3:59 AM,25.0,24.1,96,30.15,0.8,Calm,Calm,-,0.00,,Light Freezing Drizzle,0,2013-01-20 08:59:00
4:11 AM,25.0,23.0,92,30.15,4.0,Calm,Calm,-,0.00,,Light Freezing Drizzle,0,2013-01-20 09:11:00
4:19 AM,26.1,23.0,88,30.15,4.0,Calm,Calm,-,0.00,,Scattered Clouds,0,2013-01-20 09:19:00
4:44 AM,26.1,24.1,92,30.14,0.1,Calm,Calm,-,0.00,Fog,Light Freezing Fog,0,2013-01-20 09:44:00
4:53 AM,25.0,24.1,96,30.14,0.1,Calm,Calm,-,0.00,Fog,Light Freezing Drizzle,0,2013-01-20 09:53:00
5:24 AM,24.1,21.9,91,30.14,2.0,Calm,Calm,-,0.00,,Light Freezing Drizzle,0,2013-01-20 10:24:00
5:32 AM,24.1,21.9,91,30.14,2.5,Calm,Calm,-,0.00,,Light Freezing Drizzle,0,2013-01-20 10:32:00
5:39 AM,24.1,21.9,91,30.15,4.0,Calm,Calm,-,0.00,,Scattered Clouds,0,2013-01-20 10:39:00
5:53 AM,24.1,23.0,96,30.15,0.8,Calm,Calm,-,0.00,,Mostly Cloudy,0,2013-01-20 10:53:00
6:18 AM,24.1,21.0,88,30.15,4.0,Calm,Calm,-,N/A,,Mostly Cloudy,0,2013-01-20 11:18:00
6:37 AM,24.1,21.9,91,30.15,5.0,Calm,Calm,-,N/A,,Scattered Clouds,0,2013-01-20 11:37:00
6:53 AM,24.1,23.0,96,30.16,10.0,Calm,Calm,-,N/A,,Partly Cloudy,0,2013-01-20 11:53:00
7:53 AM,24.1,21.9,91,30.17,10.0,Calm,Calm,-,N/A,,Clear,0,2013-01-20 12:53:00
8:53 AM,28.0,26.1,92,30.17,10.0,Calm,Calm,-,N/A,,Clear,0,2013-01-20 13:53:00
9:53 AM,33.1,30.0,89,30.18,10.0,Calm,Calm,-,N/A,,Clear,0,2013-01-20 14:53:00
10:53 AM,43.0,32.0,65,30.17,10.0,WSW,8.1,-,N/A,,Clear,250,2013-01-20 15:53:00
11:53 AM,45.0,32.0,60,30.15,10.0,SW,15.0,-,N/A,,Clear,230,2013-01-20 16:53:00
12:53 PM,46.9,34.0,61,30.12,10.0,SSW,12.7,-,N/A,,Partly Cloudy,210,2013-01-20 17:53:00
1:53 PM,48.0,33.1,56,30.10,10.0,SW,12.7,-,N/A,,Partly Cloudy,230,2013-01-20 18:53:00
2:53 PM,50.0,30.9,48,30.09,10.0,West,8.1,-,N/A,,Partly Cloudy,270,2013-01-20 19:53:00
3:53 PM,50.0,30.9,48,30.10,10.0,WSW,12.7,-,N/A,,Partly Cloudy,240,2013-01-20 20:53:00
4:53 PM,48.0,32.0,54,30.09,10.0,SW,9.2,-,N/A,,Clear,230,2013-01-20 21:53:00
5:53 PM,42.1,32.0,67,30.12,10.0,SW,6.9,-,N/A,,Clear,230,2013-01-20 22:53:00
6:53 PM,39.9,30.9,70,30.12,10.0,SSW,5.8,-,N/A,,Clear,210,2013-01-20 23:53:00
7:53 PM,37.9,30.0,73,30.13,10.0,West,4.6,-,N/A,,Clear,260,2013-01-21 00:53:00
8:53 PM,34.0,28.9,82,30.13,10.0,Calm,Calm,-,N/A,,Clear,0,2013-01-21 01:53:00
9:53 PM,33.1,28.0,82,30.12,10.0,Calm,Calm,-,N/A,,Clear,0,2013-01-21 02:53:00
10:53 PM,30.0,27.0,88,30.10,10.0,Calm,Calm,-,N/A,,Clear,0,2013-01-21 03:53:00
11:53 PM,30.0,27.0,88,30.10,10.0,Calm,Calm,-,N/A,,Clear,0,2013-01-21 04:53:00